TimeCDT,TemperatureF,Dew PointF,Humidity,Sea Level PressureIn,VisibilityMPH,Wind Direction,Wind SpeedMPH,Gust SpeedMPH,PrecipitationIn,Events,Conditions,WindDirDegrees,DateUTC
12:42 AM,33.8,30.2,87,29.86,3.0,NNW,13.8,-,N/A,,Overcast,340,2013-03-16 05:42:00
12:50 AM,33.8,30.2,87,29.85,2.0,North,12.7,-,N/A,,Overcast,350,2013-03-16 05:50:00
12:53 AM,33.1,30.9,92,29.90,2.0,NNW,13.8,-,N/A,,Overcast,340,2013-03-16 05:53:00
1:08 AM,33.8,30.2,87,29.86,3.0,NNW,11.5,-,N/A,,Overcast,330,2013-03-16 06:08:00
1:53 AM,33.1,30.0,89,29.91,4.0,NNW,10.4,-,N/A,,Overcast,330,2013-03-16 06:53:00
2:53 AM,32.0,28.9,88,29.94,3.0,NNW,16.1,-,0.00,,Overcast,340,2013-03-16 07:53:00
3:53 AM,30.9,28.0,89,29.98,10.0,NNW,17.3,-,N/A,,Overcast,330,2013-03-16 08:53:00
4:31 AM,30.2,26.6,86,29.95,5.0,NNW,19.6,-,N/A,,Overcast,330,2013-03-16 09:31:00
4:53 AM,28.9,27.0,92,30.01,7.0,NNW,18.4,-,N/A,,Overcast,330,2013-03-16 09:53:00
5:53 AM,28.0,25.0,88,30.04,6.0,NNW,19.6,-,N/A,,Overcast,340,2013-03-16 10:53:00
6:09 AM,28.4,24.8,86,30.00,10.0,North,18.4,-,N/A,,Overcast,350,2013-03-16 11:09:00
6:53 AM,27.0,24.1,89,30.09,10.0,NNW,23.0,-,N/A,,Overcast,340,2013-03-16 11:53:00
7:14 AM,26.6,21.2,80,30.05,10.0,NNW,19.6,27.6,N/A,,Overcast,340,2013-03-16 12:14:00
7:49 AM,26.6,21.2,80,30.07,10.0,NNW,21.9,26.5,N/A,,Overcast,340,2013-03-16 12:49:00
7:53 AM,26.1,21.0,81,30.12,10.0,NNW,21.9,-,N/A,,Overcast,340,2013-03-16 12:53:00
8:53 AM,25.0,19.0,78,30.14,10.0,North,20.7,24.2,N/A,,Overcast,350,2013-03-16 13:53:00
9:53 AM,25.0,19.9,81,30.15,10.0,North,17.3,-,N/A,,Overcast,350,2013-03-16 14:53:00
10:02 AM,24.8,19.4,80,30.10,10.0,North,16.1,-,N/A,,Overcast,350,2013-03-16 15:02:00
10:24 AM,24.8,19.4,80,30.10,10.0,North,15.0,-,N/A,,Overcast,350,2013-03-16 15:24:00
10:36 AM,26.6,19.4,74,30.10,10.0,North,15.0,-,N/A,,Overcast,360,2013-03-16 15:36:00
10:53 AM,25.0,19.0,78,30.16,10.0,North,18.4,24.2,N/A,,Overcast,350,2013-03-16 15:53:00
11:12 AM,24.8,17.6,74,30.10,10.0,North,19.6,-,N/A,,Overcast,360,2013-03-16 16:12:00
11:53 AM,25.0,18.0,75,30.18,10.0,North,12.7,-,N/A,,Overcast,360,2013-03-16 16:53:00
12:53 PM,25.0,18.0,75,30.19,10.0,North,11.5,-,N/A,,Overcast,350,2013-03-16 17:53:00
1:53 PM,27.0,18.0,69,30.18,10.0,North,13.8,-,N/A,,Overcast,360,2013-03-16 18:53:00
2:53 PM,26.1,18.0,71,30.16,10.0,North,12.7,-,N/A,,Overcast,10,2013-03-16 19:53:00
3:53 PM,27.0,19.0,72,30.16,10.0,NNW,12.7,-,N/A,,Mostly Cloudy,340,2013-03-16 20:53:00
4:53 PM,26.1,18.0,71,30.17,10.0,North,12.7,-,N/A,,Overcast,360,2013-03-16 21:53:00
5:35 PM,26.6,17.6,69,30.12,10.0,North,13.8,-,N/A,,Scattered Clouds,350,2013-03-16 22:35:00
5:53 PM,26.1,17.1,69,30.18,10.0,North,12.7,-,N/A,,Scattered Clouds,350,2013-03-16 22:53:00
6:53 PM,24.1,16.0,71,30.18,10.0,North,12.7,-,N/A,,Partly Cloudy,10,2013-03-16 23:53:00
7:26 PM,24.8,15.8,69,30.13,10.0,North,11.5,-,N/A,,Mostly Cloudy,360,2013-03-17 00:26:00
7:53 PM,23.0,15.1,72,30.20,10.0,North,13.8,-,N/A,,Overcast,10,2013-03-17 00:53:00
8:53 PM,21.9,14.0,72,30.24,10.0,NNE,13.8,-,N/A,,Scattered Clouds,20,2013-03-17 01:53:00
9:24 PM,21.2,14.0,74,30.20,10.0,North,12.7,-,N/A,,Mostly Cloudy,360,2013-03-17 02:24:00
9:31 PM,21.2,12.2,68,30.20,10.0,North,13.8,-,N/A,,Scattered Clouds,360,2013-03-17 02:31:00
9:46 PM,21.2,14.0,74,30.21,10.0,North,13.8,-,N/A,,Mostly Cloudy,350,2013-03-17 02:46:00
9:53 PM,19.9,12.9,74,30.27,10.0,North,12.7,-,N/A,,Mostly Cloudy,350,2013-03-17 02:53:00
10:03 PM,19.4,12.2,74,30.21,10.0,North,11.5,-,N/A,,Scattered Clouds,10,2013-03-17 03:03:00
10:53 PM,19.9,12.9,74,30.27,10.0,North,10.4,-,N/A,,Scattered Clouds,360,2013-03-17 03:53:00
11:02 PM,19.4,12.2,74,30.21,10.0,North,10.4,-,N/A,,Mostly Cloudy,360,2013-03-17 04:02:00
11:36 PM,19.4,12.2,74,30.21,10.0,North,10.4,-,N/A,,Scattered Clouds,10,2013-03-17 04:36:00
11:53 PM,19.0,12.0,74,30.28,10.0,North,9.2,-,N/A,,Partly Cloudy,10,2013-03-17 04:53:00